owner,sensor,date,latitude,longitude,vertical_datum,wind_speed,wind_to_direction,wind_speed_of_gust,qcFlag 
ADCP,ioos:station:wmo:42364:1,2013-03-01T00:30:00Z,29.0600,-88.0900,122.0,3.6,309.0,99.0,'11111222,11111222,11144222' 
ADCP,ioos:station:wmo:42364:1,2013-03-01T01:30:00Z,29.0600,-88.0900,122.0,4.8,314.0,99.0,'11111222,11111222,11144222' 
ADCP,ioos:station:wmo:42364:1,2013-03-01T02:30:00Z,29.0600,-88.0900,122.0,5.0,313.0,99.0,'11111222,11111222,11144222' 
ADCP,ioos:station:wmo:42364:1,2013-03-01T03:30:00Z,29.0600,-88.0900,122.0,6.2,320.0,99.0,'11111222,11111222,11144222' 
ADCP,ioos:station:wmo:42364:1,2013-03-01T04:30:00Z,29.0600,-88.0900,122.0,6.4,326.0,99.0,'11111222,11111222,11144222' 
ADCP,ioos:station:wmo:42364:1,2013-03-01T05:30:00Z,29.0600,-88.0900,122.0,8.1,334.0,99.0,'11111222,11111222,11144222' 
ADCP,ioos:station:wmo:42364:1,2013-03-01T06:30:00Z,29.0600,-88.0900,122.0,10.6,341.0,99.0,'11111222,11111222,11144222' 
ADCP,ioos:station:wmo:42364:1,2013-03-01T07:30:00Z,29.0600,-88.0900,122.0,10.9,345.0,99.0,'11111222,11111222,11144222' 
ADCP,ioos:station:wmo:42364:1,2013-03-01T08:30:00Z,29.0600,-88.0900,122.0,9.7,341.0,99.0,'11111222,11111222,11144222' 
ADCP,ioos:station:wmo:42364:1,2013-03-01T09:30:00Z,29.0600,-88.0900,122.0,10.7,346.0,99.0,'11111222,11111222,11144222' 
ADCP,ioos:station:wmo:42364:1,2013-03-01T10:30:00Z,29.0600,-88.0900,122.0,11.4,344.0,99.0,'11111222,11111222,11144222' 
ADCP,ioos:station:wmo:42364:1,2013-03-01T11:30:00Z,29.0600,-88.0900,122.0,10.6,345.0,99.0,'11111222,11111222,11144222' 
ADCP,ioos:station:wmo:42364:1,2013-03-01T12:30:00Z,29.0600,-88.0900,122.0,9.3,340.0,99.0,'11111222,11111222,11144222' 
ADCP,ioos:station:wmo:42364:1,2013-03-01T13:30:00Z,29.0600,-88.0900,122.0,8.8,2.0,99.0,'11111222,11111222,11144222' 
ADCP,ioos:station:wmo:42364:1,2013-03-01T14:30:00Z,29.0600,-88.0900,122.0,7.3,351.0,99.0,'11111222,11111222,11144222' 
ADCP,ioos:station:wmo:42364:1,2013-03-01T15:30:00Z,29.0600,-88.0900,122.0,4.8,323.0,99.0,'11111222,11111222,11144222' 
ADCP,ioos:station:wmo:42364:1,2013-03-01T16:30:00Z,29.0600,-88.0900,122.0,3.9,316.0,99.0,'11111222,11111222,11144222' 
ADCP,ioos:station:wmo:42364:1,2013-03-01T17:30:00Z,29.0600,-88.0900,122.0,3.3,313.0,99.0,'11111222,11111222,11144222' 
ADCP,ioos:station:wmo:42364:1,2013-03-01T18:30:00Z,29.0600,-88.0900,122.0,1.9,296.0,99.0,'11111222,11111222,11144222' 
ADCP,ioos:station:wmo:42364:1,2013-03-01T19:30:00Z,29.0600,-88.0900,122.0,2.3,282.0,99.0,'11111222,11111222,11144222' 
ADCP,ioos:station:wmo:42364:1,2013-03-01T20:30:00Z,29.0600,-88.0900,122.0,2.5,290.0,99.0,'11111222,11111222,11144222' 
ADCP,ioos:station:wmo:42364:1,2013-03-01T21:30:00Z,29.0600,-88.0900,122.0,5.6,323.0,99.0,'11111222,11111222,11144222' 
ADCP,ioos:station:wmo:42364:1,2013-03-01T22:30:00Z,29.0600,-88.0900,122.0,2.8,295.0,99.0,'11111222,11111222,11144222' 
ADCP,ioos:station:wmo:42364:1,2013-03-01T23:30:00Z,29.0600,-88.0900,122.0,2.4,284.0,99.0,'11111222,11111222,11144222' 
ADCP,ioos:station:wmo:42364:1,2013-03-02T00:30:00Z,29.0600,-88.0900,122.0,2.3,286.0,99.0,'11111222,11111222,11144222' 
ADCP,ioos:station:wmo:42364:1,2013-03-02T02:30:00Z,29.0600,-88.0900,122.0,3.1,289.0,99.0,'11111222,11111222,11144222' 
ADCP,ioos:station:wmo:42364:1,2013-03-02T03:30:00Z,29.0600,-88.0900,122.0,3.6,288.0,99.0,'11111222,11111222,11144222' 
ADCP,ioos:station:wmo:42364:1,2013-03-02T04:30:00Z,29.0600,-88.0900,122.0,11.7,358.0,99.0,'11111222,11111222,11144222' 
ADCP,ioos:station:wmo:42364:1,2013-03-02T05:30:00Z,29.0600,-88.0900,122.0,99.0,321.0,99.0,'11144222,11111222,11144222' 
ADCP,ioos:station:wmo:42364:1,2013-03-02T06:30:00Z,29.0600,-88.0900,122.0,19.2,101.0,99.0,'11111222,11111222,11144222' 
ADCP,ioos:station:wmo:42364:1,2013-03-02T07:30:00Z,29.0600,-88.0900,122.0,99.0,296.0,99.0,'11144222,11111222,11144222' 
ADCP,ioos:station:wmo:42364:1,2013-03-02T08:30:00Z,29.0600,-88.0900,122.0,24.3,173.0,99.0,'11111222,11111222,11144222' 
ADCP,ioos:station:wmo:42364:1,2013-03-02T09:30:00Z,29.0600,-88.0900,122.0,11.6,35.0,99.0,'11111222,11111222,11144222' 
ADCP,ioos:station:wmo:42364:1,2013-03-02T10:30:00Z,29.0600,-88.0900,122.0,8.1,341.0,99.0,'11111222,11111222,11144222' 
ADCP,ioos:station:wmo:42364:1,2013-03-02T11:30:00Z,29.0600,-88.0900,122.0,6.1,338.0,99.0,'11111222,11111222,11144222' 
ADCP,ioos:station:wmo:42364:1,2013-03-02T12:30:00Z,29.0600,-88.0900,122.0,5.9,334.0,99.0,'11111222,11111222,11144222' 
ADCP,ioos:station:wmo:42364:1,2013-03-02T13:30:00Z,29.0600,-88.0900,122.0,5.9,336.0,99.0,'11111222,11111222,11144222' 
ADCP,ioos:station:wmo:42364:1,2013-03-02T14:30:00Z,29.0600,-88.0900,122.0,7.0,338.0,99.0,'11111222,11111222,11144222' 
ADCP,ioos:station:wmo:42364:1,2013-03-02T15:30:00Z,29.0600,-88.0900,122.0,8.1,340.0,99.0,'11111222,11111222,11144222' 
ADCP,ioos:station:wmo:42364:1,2013-03-02T16:30:00Z,29.0600,-88.0900,122.0,7.7,339.0,99.0,'11111222,11111222,11144222' 
ADCP,ioos:station:wmo:42364:1,2013-03-02T17:30:00Z,29.0600,-88.0900,122.0,6.4,339.0,99.0,'11111222,11111222,11144222' 
ADCP,ioos:station:wmo:42364:1,2013-03-02T18:30:00Z,29.0600,-88.0900,122.0,5.3,333.0,99.0,'11111222,11111222,11144222' 
ADCP,ioos:station:wmo:42364:1,2013-03-02T19:30:00Z,29.0600,-88.0900,122.0,4.6,322.0,99.0,'11111222,11111222,11144222' 
ADCP,ioos:station:wmo:42364:1,2013-03-02T20:30:00Z,29.0600,-88.0900,122.0,99.0,262.0,99.0,'11144222,11111222,11144222' 
ADCP,ioos:station:wmo:42364:1,2013-03-02T21:30:00Z,29.0600,-88.0900,122.0,99.0,354.0,99.0,'11144222,11111222,11144222' 
ADCP,ioos:station:wmo:42364:1,2013-03-02T22:30:00Z,29.0600,-88.0900,122.0,99.0,318.0,99.0,'11144222,11111222,11144222' 
ADCP,ioos:station:wmo:42364:1,2013-03-02T23:30:00Z,29.0600,-88.0900,122.0,99.0,276.0,99.0,'11144222,11111222,11144222' 
ADCP,ioos:station:wmo:42364:1,2013-03-03T00:30:00Z,29.0600,-88.0900,122.0,99.0,93.0,99.0,'11144222,11111222,11144222' 
ADCP,ioos:station:wmo:42364:1,2013-03-03T01:30:00Z,29.0600,-88.0900,122.0,27.1,194.0,99.0,'11111222,11111222,11144222' 
ADCP,ioos:station:wmo:42364:1,2013-03-03T02:30:00Z,29.0600,-88.0900,122.0,13.8,34.0,99.0,'11111222,11111222,11144222' 
ADCP,ioos:station:wmo:42364:1,2013-03-03T03:30:00Z,29.0600,-88.0900,122.0,9.9,340.0,99.0,'11111222,11111222,11144222' 
ADCP,ioos:station:wmo:42364:1,2013-03-03T04:30:00Z,29.0600,-88.0900,122.0,9.9,337.0,99.0,'11111222,11111222,11144222' 
ADCP,ioos:station:wmo:42364:1,2013-03-03T05:30:00Z,29.0600,-88.0900,122.0,10.4,337.0,99.0,'11111222,11111222,11144222' 
ADCP,ioos:station:wmo:42364:1,2013-03-03T06:30:00Z,29.0600,-88.0900,122.0,7.9,323.0,99.0,'11111222,11111222,11144222' 
ADCP,ioos:station:wmo:42364:1,2013-03-03T07:30:00Z,29.0600,-88.0900,122.0,7.8,324.0,99.0,'11111222,11111222,11144222' 
ADCP,ioos:station:wmo:42364:1,2013-03-03T08:30:00Z,29.0600,-88.0900,122.0,8.3,328.0,99.0,'11111222,11111222,11144222' 
ADCP,ioos:station:wmo:42364:1,2013-03-03T09:30:00Z,29.0600,-88.0900,122.0,8.4,324.0,99.0,'11111222,11111222,11144222' 
ADCP,ioos:station:wmo:42364:1,2013-03-03T10:30:00Z,29.0600,-88.0900,122.0,8.2,328.0,99.0,'11111222,11111222,11144222' 
ADCP,ioos:station:wmo:42364:1,2013-03-03T11:30:00Z,29.0600,-88.0900,122.0,8.7,336.0,99.0,'11111222,11111222,11144222' 
ADCP,ioos:station:wmo:42364:1,2013-03-03T12:30:00Z,29.0600,-88.0900,122.0,10.0,341.0,99.0,'11111222,11111222,11144222' 
ADCP,ioos:station:wmo:42364:1,2013-03-03T13:30:00Z,29.0600,-88.0900,122.0,9.4,336.0,99.0,'11111222,11111222,11144222' 
ADCP,ioos:station:wmo:42364:1,2013-03-03T14:30:00Z,29.0600,-88.0900,122.0,9.5,338.0,99.0,'11111222,11111222,11144222' 
ADCP,ioos:station:wmo:42364:1,2013-03-03T15:30:00Z,29.0600,-88.0900,122.0,9.7,340.0,99.0,'11111222,11111222,11144222' 
ADCP,ioos:station:wmo:42364:1,2013-03-03T16:30:00Z,29.0600,-88.0900,122.0,8.4,335.0,99.0,'11111222,11111222,11144222' 
ADCP,ioos:station:wmo:42364:1,2013-03-03T17:30:00Z,29.0600,-88.0900,122.0,7.6,330.0,99.0,'11111222,11111222,11144222' 
ADCP,ioos:station:wmo:42364:1,2013-03-03T18:30:00Z,29.0600,-88.0900,122.0,8.4,352.0,99.0,'11111222,11111222,11144222' 
ADCP,ioos:station:wmo:42364:1,2013-03-03T19:30:00Z,29.0600,-88.0900,122.0,99.0,301.0,99.0,'11144222,11111222,11144222' 
ADCP,ioos:station:wmo:42364:1,2013-03-03T20:30:00Z,29.0600,-88.0900,122.0,99.0,118.0,99.0,'11144222,11111222,11144222' 
ADCP,ioos:station:wmo:42364:1,2013-03-03T21:30:00Z,29.0600,-88.0900,122.0,13.4,98.0,99.0,'11111222,11111222,11144222' 
ADCP,ioos:station:wmo:42364:1,2013-03-03T22:30:00Z,29.0600,-88.0900,122.0,99.0,263.0,99.0,'11144222,11111222,11144222' 
ADCP,ioos:station:wmo:42364:1,2013-03-03T23:30:00Z,29.0600,-88.0900,122.0,6.7,340.0,99.0,'11111222,11111222,11144222' 
ADCP,ioos:station:wmo:42364:1,2013-03-04T00:30:00Z,29.0600,-88.0900,122.0,6.8,337.0,99.0,'11111222,11111222,11144222' 
ADCP,ioos:station:wmo:42364:1,2013-03-04T01:30:00Z,29.0600,-88.0900,122.0,2.2,288.0,99.0,'11111222,11111222,11144222' 
ADCP,ioos:station:wmo:42364:1,2013-03-04T02:30:00Z,29.0600,-88.0900,122.0,2.4,291.0,99.0,'11111222,11111222,11144222' 
ADCP,ioos:station:wmo:42364:1,2013-03-04T03:30:00Z,29.0600,-88.0900,122.0,1.7,296.0,99.0,'11111222,11111222,11144222' 
ADCP,ioos:station:wmo:42364:1,2013-03-04T04:30:00Z,29.0600,-88.0900,122.0,1.9,288.0,99.0,'11111222,11111222,11144222' 
ADCP,ioos:station:wmo:42364:1,2013-03-04T05:30:00Z,29.0600,-88.0900,122.0,1.5,306.0,99.0,'11111222,11111222,11144222' 
ADCP,ioos:station:wmo:42364:1,2013-03-04T06:30:00Z,29.0600,-88.0900,122.0,0.5,332.0,99.0,'11111222,11111222,11144222' 
ADCP,ioos:station:wmo:42364:1,2013-03-04T07:30:00Z,29.0600,-88.0900,122.0,0.1,359.0,99.0,'11111222,11111222,11144222' 
ADCP,ioos:station:wmo:42364:1,2013-03-04T08:30:00Z,29.0600,-88.0900,122.0,0.1,352.0,99.0,'11111222,11111222,11144222' 
ADCP,ioos:station:wmo:42364:1,2013-03-04T09:30:00Z,29.0600,-88.0900,122.0,1.3,250.0,99.0,'11111222,11111222,11144222' 
ADCP,ioos:station:wmo:42364:1,2013-03-04T10:30:00Z,29.0600,-88.0900,122.0,2.7,175.0,99.0,'11111222,11111222,11144222' 
ADCP,ioos:station:wmo:42364:1,2013-03-04T11:30:00Z,29.0600,-88.0900,122.0,3.7,178.0,99.0,'11111222,11111222,11144222' 
ADCP,ioos:station:wmo:42364:1,2013-03-04T12:30:00Z,29.0600,-88.0900,122.0,3.9,172.0,99.0,'11111222,11111222,11144222' 
ADCP,ioos:station:wmo:42364:1,2013-03-04T13:30:00Z,29.0600,-88.0900,122.0,4.7,168.0,99.0,'11111222,11111222,11144222' 
ADCP,ioos:station:wmo:42364:1,2013-03-04T14:30:00Z,29.0600,-88.0900,122.0,5.3,168.0,99.0,'11111222,11111222,11144222' 
ADCP,ioos:station:wmo:42364:1,2013-03-04T15:30:00Z,29.0600,-88.0900,122.0,6.7,170.0,99.0,'11111222,11111222,11144222' 
ADCP,ioos:station:wmo:42364:1,2013-03-04T16:30:00Z,29.0600,-88.0900,122.0,7.7,170.0,99.0,'11111222,11111222,11144222' 
ADCP,ioos:station:wmo:42364:1,2013-03-04T17:30:00Z,29.0600,-88.0900,122.0,8.5,172.0,99.0,'11111222,11111222,11144222' 
ADCP,ioos:station:wmo:42364:1,2013-03-04T18:30:00Z,29.0600,-88.0900,122.0,8.3,175.0,99.0,'11111222,11111222,11144222' 
ADCP,ioos:station:wmo:42364:1,2013-03-04T19:30:00Z,29.0600,-88.0900,122.0,5.5,193.0,99.0,'11111222,11111222,11144222' 
ADCP,ioos:station:wmo:42364:1,2013-03-04T20:30:00Z,29.0600,-88.0900,122.0,5.5,195.0,99.0,'11111222,11111222,11144222' 
ADCP,ioos:station:wmo:42364:1,2013-03-04T21:30:00Z,29.0600,-88.0900,122.0,4.3,202.0,99.0,'11111222,11111222,11144222' 
ADCP,ioos:station:wmo:42364:1,2013-03-04T23:30:00Z,29.0600,-88.0900,122.0,4.3,213.0,99.0,'11111222,11111222,11144222' 
ADCP,ioos:station:wmo:42364:1,2013-03-05T00:30:00Z,29.0600,-88.0900,122.0,1.7,285.0,99.0,'11111222,11111222,11144222' 
ADCP,ioos:station:wmo:42364:1,2013-03-05T01:30:00Z,29.0600,-88.0900,122.0,1.8,285.0,99.0,'11111222,11111222,11144222' 
ADCP,ioos:station:wmo:42364:1,2013-03-05T02:30:00Z,29.0600,-88.0900,122.0,3.7,239.0,99.0,'11111222,11111222,11144222' 
ADCP,ioos:station:wmo:42364:1,2013-03-05T03:30:00Z,29.0600,-88.0900,122.0,4.1,224.0,99.0,'11111222,11111222,11144222' 
ADCP,ioos:station:wmo:42364:1,2013-03-05T04:30:00Z,29.0600,-88.0900,122.0,4.2,227.0,99.0,'11111222,11111222,11144222' 
ADCP,ioos:station:wmo:42364:1,2013-03-05T05:30:00Z,29.0600,-88.0900,122.0,3.3,253.0,99.0,'11111222,11111222,11144222' 
ADCP,ioos:station:wmo:42364:1,2013-03-05T06:30:00Z,29.0600,-88.0900,122.0,6.0,216.0,99.0,'11111222,11111222,11144222' 
ADCP,ioos:station:wmo:42364:1,2013-03-05T07:30:00Z,29.0600,-88.0900,122.0,5.3,218.0,99.0,'11111222,11111222,11144222' 
ADCP,ioos:station:wmo:42364:1,2013-03-05T08:30:00Z,29.0600,-88.0900,122.0,2.7,250.0,99.0,'11111222,11111222,11144222' 
ADCP,ioos:station:wmo:42364:1,2013-03-05T09:30:00Z,29.0600,-88.0900,122.0,2.4,267.0,99.0,'11111222,11111222,11144222' 
ADCP,ioos:station:wmo:42364:1,2013-03-05T10:30:00Z,29.0600,-88.0900,122.0,1.8,274.0,99.0,'11111222,11111222,11144222' 
ADCP,ioos:station:wmo:42364:1,2013-03-05T11:30:00Z,29.0600,-88.0900,122.0,1.3,288.0,99.0,'11111222,11111222,11144222' 
ADCP,ioos:station:wmo:42364:1,2013-03-05T12:30:00Z,29.0600,-88.0900,122.0,1.5,284.0,99.0,'11111222,11111222,11144222' 
ADCP,ioos:station:wmo:42364:1,2013-03-05T13:30:00Z,29.0600,-88.0900,122.0,3.1,250.0,99.0,'11111222,11111222,11144222' 
ADCP,ioos:station:wmo:42364:1,2013-03-05T15:30:00Z,29.0600,-88.0900,122.0,0.8,312.0,99.0,'11111222,11111222,11144222' 
ADCP,ioos:station:wmo:42364:1,2013-03-05T16:30:00Z,29.0600,-88.0900,122.0,0.0,0.0,99.0,'11111222,11111222,11144222' 
ADCP,ioos:station:wmo:42364:1,2013-03-05T17:30:00Z,29.0600,-88.0900,122.0,2.7,284.0,99.0,'11111222,11111222,11144222' 
ADCP,ioos:station:wmo:42364:1,2013-03-05T18:30:00Z,29.0600,-88.0900,122.0,4.8,261.0,99.0,'11111222,11111222,11144222' 
ADCP,ioos:station:wmo:42364:1,2013-03-05T20:30:00Z,29.0600,-88.0900,122.0,0.7,312.0,99.0,'11111222,11111222,11144222' 
ADCP,ioos:station:wmo:42364:1,2013-03-05T21:30:00Z,29.0600,-88.0900,122.0,0.4,332.0,99.0,'11111222,11111222,11144222' 
ADCP,ioos:station:wmo:42364:1,2013-03-05T22:30:00Z,29.0600,-88.0900,122.0,0.1,356.0,99.0,'11111222,11111222,11144222' 
ADCP,ioos:station:wmo:42364:1,2013-03-05T23:30:00Z,29.0600,-88.0900,122.0,0.1,354.0,99.0,'11111222,11111222,11144222' 
ADCP,ioos:station:wmo:42364:1,2013-03-06T00:30:00Z,29.0600,-88.0900,122.0,1.9,294.0,99.0,'11111222,11111222,11144222' 
ADCP,ioos:station:wmo:42364:1,2013-03-06T01:30:00Z,29.0600,-88.0900,122.0,7.8,250.0,99.0,'11111222,11111222,11144222' 
ADCP,ioos:station:wmo:42364:1,2013-03-06T02:30:00Z,29.0600,-88.0900,122.0,7.6,262.0,99.0,'11111222,11111222,11144222' 
ADCP,ioos:station:wmo:42364:1,2013-03-06T03:30:00Z,29.0600,-88.0900,122.0,3.9,285.0,99.0,'11111222,11111222,11144222' 
ADCP,ioos:station:wmo:42364:1,2013-03-06T04:30:00Z,29.0600,-88.0900,122.0,12.0,342.0,99.0,'11111222,11111222,11144222' 
ADCP,ioos:station:wmo:42364:1,2013-03-06T05:30:00Z,29.0600,-88.0900,122.0,13.0,351.0,99.0,'11111222,11111222,11144222' 
ADCP,ioos:station:wmo:42364:1,2013-03-06T07:30:00Z,29.0600,-88.0900,122.0,14.5,347.0,99.0,'11111222,11111222,11144222' 
ADCP,ioos:station:wmo:42364:1,2013-03-06T08:30:00Z,29.0600,-88.0900,122.0,14.1,340.0,99.0,'11111222,11111222,11144222' 
ADCP,ioos:station:wmo:42364:1,2013-03-06T09:30:00Z,29.0600,-88.0900,122.0,14.2,340.0,99.0,'11111222,11111222,11144222' 
ADCP,ioos:station:wmo:42364:1,2013-03-06T10:30:00Z,29.0600,-88.0900,122.0,15.1,341.0,99.0,'11111222,11111222,11144222' 
ADCP,ioos:station:wmo:42364:1,2013-03-06T11:30:00Z,29.0600,-88.0900,122.0,15.7,346.0,99.0,'11111222,11111222,11144222' 
ADCP,ioos:station:wmo:42364:1,2013-03-06T12:30:00Z,29.0600,-88.0900,122.0,16.1,345.0,99.0,'11111222,11111222,11144222' 
ADCP,ioos:station:wmo:42364:1,2013-03-06T13:30:00Z,29.0600,-88.0900,122.0,15.8,346.0,99.0,'11111222,11111222,11144222' 
ADCP,ioos:station:wmo:42364:1,2013-03-06T14:30:00Z,29.0600,-88.0900,122.0,14.7,346.0,99.0,'11111222,11111222,11144222' 
ADCP,ioos:station:wmo:42364:1,2013-03-06T15:30:00Z,29.0600,-88.0900,122.0,13.0,346.0,99.0,'11111222,11111222,11144222' 
ADCP,ioos:station:wmo:42364:1,2013-03-06T17:30:00Z,29.0600,-88.0900,122.0,9.8,340.0,99.0,'11111222,11111222,11144222' 
ADCP,ioos:station:wmo:42364:1,2013-03-06T18:30:00Z,29.0600,-88.0900,122.0,7.9,336.0,99.0,'11111222,11111222,11144222' 
ADCP,ioos:station:wmo:42364:1,2013-03-06T19:30:00Z,29.0600,-88.0900,122.0,11.2,21.0,99.0,'11111222,11111222,11144222' 
ADCP,ioos:station:wmo:42364:1,2013-03-06T20:30:00Z,29.0600,-88.0900,122.0,99.0,110.0,99.0,'11144222,11111222,11144222' 
ADCP,ioos:station:wmo:42364:1,2013-03-06T21:30:00Z,29.0600,-88.0900,122.0,99.0,208.0,99.0,'11144222,11111222,11144222' 
ADCP,ioos:station:wmo:42364:1,2013-03-06T22:30:00Z,29.0600,-88.0900,122.0,5.7,328.0,99.0,'11111222,11111222,11144222' 
ADCP,ioos:station:wmo:42364:1,2013-03-07T00:30:00Z,29.0600,-88.0900,122.0,5.4,324.0,99.0,'11111222,11111222,11144222' 
ADCP,ioos:station:wmo:42364:1,2013-03-07T01:30:00Z,29.0600,-88.0900,122.0,5.3,325.0,99.0,'11111222,11111222,11144222' 
ADCP,ioos:station:wmo:42364:1,2013-03-07T02:30:00Z,29.0600,-88.0900,122.0,6.3,334.0,99.0,'11111222,11111222,11144222' 
ADCP,ioos:station:wmo:42364:1,2013-03-07T03:30:00Z,29.0600,-88.0900,122.0,6.6,337.0,99.0,'11111222,11111222,11144222' 
ADCP,ioos:station:wmo:42364:1,2013-03-07T04:30:00Z,29.0600,-88.0900,122.0,8.2,356.0,99.0,'11111222,11111222,11144222' 
ADCP,ioos:station:wmo:42364:1,2013-03-07T05:30:00Z,29.0600,-88.0900,122.0,8.1,354.0,99.0,'11111222,11111222,11144222' 
ADCP,ioos:station:wmo:42364:1,2013-03-07T06:30:00Z,29.0600,-88.0900,122.0,8.0,360.0,99.0,'11111222,11144222,11144222' 
ADCP,ioos:station:wmo:42364:1,2013-03-07T07:30:00Z,29.0600,-88.0900,122.0,7.4,1.0,99.0,'11111222,11111222,11144222' 
ADCP,ioos:station:wmo:42364:1,2013-03-07T08:30:00Z,29.0600,-88.0900,122.0,8.0,9.0,99.0,'11111222,11111222,11144222' 
ADCP,ioos:station:wmo:42364:1,2013-03-07T09:30:00Z,29.0600,-88.0900,122.0,7.3,14.0,99.0,'11111222,11111222,11144222' 
ADCP,ioos:station:wmo:42364:1,2013-03-07T10:30:00Z,29.0600,-88.0900,122.0,7.2,24.0,99.0,'11111222,11111222,11144222' 
ADCP,ioos:station:wmo:42364:1,2013-03-07T11:30:00Z,29.0600,-88.0900,122.0,7.4,25.0,99.0,'11111222,11111222,11144222' 
ADCP,ioos:station:wmo:42364:1,2013-03-07T12:30:00Z,29.0600,-88.0900,122.0,6.7,23.0,99.0,'11111222,11111222,11144222' 
ADCP,ioos:station:wmo:42364:1,2013-03-07T13:30:00Z,29.0600,-88.0900,122.0,5.8,25.0,99.0,'11111222,11111222,11144222' 
ADCP,ioos:station:wmo:42364:1,2013-03-07T14:30:00Z,29.0600,-88.0900,122.0,5.4,21.0,99.0,'11111222,11111222,11144222' 
ADCP,ioos:station:wmo:42364:1,2013-03-07T15:30:00Z,29.0600,-88.0900,122.0,5.1,25.0,99.0,'11111222,11111222,11144222' 
ADCP,ioos:station:wmo:42364:1,2013-03-07T16:30:00Z,29.0600,-88.0900,122.0,4.1,28.0,99.0,'11111222,11111222,11144222' 
ADCP,ioos:station:wmo:42364:1,2013-03-07T17:30:00Z,29.0600,-88.0900,122.0,3.9,27.0,99.0,'11111222,11111222,11144222' 
ADCP,ioos:station:wmo:42364:1,2013-03-07T18:30:00Z,29.0600,-88.0900,122.0,3.9,22.0,99.0,'11111222,11111222,11144222' 
ADCP,ioos:station:wmo:42364:1,2013-03-07T19:30:00Z,29.0600,-88.0900,122.0,3.3,19.0,99.0,'11111222,11111222,11144222' 
ADCP,ioos:station:wmo:42364:1,2013-03-07T20:30:00Z,29.0600,-88.0900,122.0,3.3,4.0,99.0,'11111222,11111222,11144222' 
ADCP,ioos:station:wmo:42364:1,2013-03-07T21:30:00Z,29.0600,-88.0900,122.0,3.5,354.0,99.0,'11111222,11111222,11144222' 
ADCP,ioos:station:wmo:42364:1,2013-03-07T22:30:00Z,29.0600,-88.0900,122.0,2.3,7.0,99.0,'11111222,11111222,11144222' 
ADCP,ioos:station:wmo:42364:1,2013-03-07T23:30:00Z,29.0600,-88.0900,122.0,3.0,2.0,99.0,'11111222,11111222,11144222' 
ADCP,ioos:station:wmo:42364:1,2013-03-08T00:30:00Z,29.0600,-88.0900,122.0,1.7,14.0,99.0,'11111222,11111222,11144222' 
ADCP,ioos:station:wmo:42364:1,2013-03-08T01:30:00Z,29.0600,-88.0900,122.0,1.9,358.0,99.0,'11111222,11111222,11144222' 
ADCP,ioos:station:wmo:42364:1,2013-03-08T02:30:00Z,29.0600,-88.0900,122.0,2.2,345.0,99.0,'11111222,11111222,11144222' 
ADCP,ioos:station:wmo:42364:1,2013-03-08T03:30:00Z,29.0600,-88.0900,122.0,2.4,341.0,99.0,'11111222,11111222,11144222' 
ADCP,ioos:station:wmo:42364:1,2013-03-08T04:30:00Z,29.0600,-88.0900,122.0,2.4,342.0,99.0,'11111222,11111222,11144222' 
ADCP,ioos:station:wmo:42364:1,2013-03-08T05:30:00Z,29.0600,-88.0900,122.0,2.8,348.0,99.0,'11111222,11111222,11144222' 
ADCP,ioos:station:wmo:42364:1,2013-03-08T06:30:00Z,29.0600,-88.0900,122.0,1.8,4.0,99.0,'11111222,11111222,11144222' 
ADCP,ioos:station:wmo:42364:1,2013-03-08T07:30:00Z,29.0600,-88.0900,122.0,2.7,3.0,99.0,'11111222,11111222,11144222' 
ADCP,ioos:station:wmo:42364:1,2013-03-08T08:30:00Z,29.0600,-88.0900,122.0,3.1,8.0,99.0,'11111222,11111222,11144222' 
ADCP,ioos:station:wmo:42364:1,2013-03-08T09:30:00Z,29.0600,-88.0900,122.0,3.6,5.0,99.0,'11111222,11111222,11144222' 
ADCP,ioos:station:wmo:42364:1,2013-03-08T10:30:00Z,29.0600,-88.0900,122.0,4.4,6.0,99.0,'11111222,11111222,11144222' 
ADCP,ioos:station:wmo:42364:1,2013-03-08T11:30:00Z,29.0600,-88.0900,122.0,4.4,24.0,99.0,'11111222,11111222,11144222' 
ADCP,ioos:station:wmo:42364:1,2013-03-08T12:30:00Z,29.0600,-88.0900,122.0,4.8,26.0,99.0,'11111222,11111222,11144222' 
ADCP,ioos:station:wmo:42364:1,2013-03-08T13:30:00Z,29.0600,-88.0900,122.0,5.0,25.0,99.0,'11111222,11111222,11144222' 
ADCP,ioos:station:wmo:42364:1,2013-03-08T14:30:00Z,29.0600,-88.0900,122.0,4.2,38.0,99.0,'11111222,11111222,11144222' 
ADCP,ioos:station:wmo:42364:1,2013-03-08T15:30:00Z,29.0600,-88.0900,122.0,3.7,48.0,99.0,'11111222,11111222,11144222' 
ADCP,ioos:station:wmo:42364:1,2013-03-08T16:30:00Z,29.0600,-88.0900,122.0,3.9,57.0,99.0,'11111222,11111222,11144222' 
ADCP,ioos:station:wmo:42364:1,2013-03-08T17:30:00Z,29.0600,-88.0900,122.0,4.0,57.0,99.0,'11111222,11111222,11144222' 
ADCP,ioos:station:wmo:42364:1,2013-03-08T18:30:00Z,29.0600,-88.0900,122.0,3.8,47.0,99.0,'11111222,11111222,11144222' 
ADCP,ioos:station:wmo:42364:1,2013-03-08T19:30:00Z,29.0600,-88.0900,122.0,3.1,51.0,99.0,'11111222,11111222,11144222' 
ADCP,ioos:station:wmo:42364:1,2013-03-08T20:30:00Z,29.0600,-88.0900,122.0,2.4,49.0,99.0,'11111222,11111222,11144222' 
ADCP,ioos:station:wmo:42364:1,2013-03-08T21:30:00Z,29.0600,-88.0900,122.0,2.3,46.0,99.0,'11111222,11111222,11144222' 
ADCP,ioos:station:wmo:42364:1,2013-03-08T22:30:00Z,29.0600,-88.0900,122.0,2.2,51.0,99.0,'11111222,11111222,11144222' 
ADCP,ioos:station:wmo:42364:1,2013-03-08T23:30:00Z,29.0600,-88.0900,122.0,1.8,67.0,99.0,'11111222,11111222,11144222' 
ADCP,ioos:station:wmo:42364:1,2013-03-09T00:30:00Z,29.0600,-88.0900,122.0,1.4,66.0,99.0,'11111222,11111222,11144222' 
ADCP,ioos:station:wmo:42364:1,2013-03-09T01:30:00Z,29.0600,-88.0900,122.0,1.7,56.0,99.0,'11111222,11111222,11144222' 
ADCP,ioos:station:wmo:42364:1,2013-03-09T02:30:00Z,29.0600,-88.0900,122.0,2.4,44.0,99.0,'11111222,11111222,11144222' 
ADCP,ioos:station:wmo:42364:1,2013-03-09T03:30:00Z,29.0600,-88.0900,122.0,3.0,70.0,99.0,'11111222,11111222,11144222' 
ADCP,ioos:station:wmo:42364:1,2013-03-09T04:30:00Z,29.0600,-88.0900,122.0,2.9,107.0,99.0,'11111222,11111222,11144222' 
ADCP,ioos:station:wmo:42364:1,2013-03-09T05:30:00Z,29.0600,-88.0900,122.0,2.0,221.0,99.0,'11111222,11111222,11144222' 
ADCP,ioos:station:wmo:42364:1,2013-03-09T06:30:00Z,29.0600,-88.0900,122.0,0.1,352.0,99.0,'11111222,11111222,11144222' 
ADCP,ioos:station:wmo:42364:1,2013-03-09T07:30:00Z,29.0600,-88.0900,122.0,0.3,32.0,99.0,'11111222,11111222,11144222' 
ADCP,ioos:station:wmo:42364:1,2013-03-09T08:30:00Z,29.0600,-88.0900,122.0,1.8,111.0,99.0,'11111222,11111222,11144222' 
ADCP,ioos:station:wmo:42364:1,2013-03-09T09:30:00Z,29.0600,-88.0900,122.0,2.8,101.0,99.0,'11111222,11111222,11144222' 
ADCP,ioos:station:wmo:42364:1,2013-03-09T10:30:00Z,29.0600,-88.0900,122.0,4.8,98.0,99.0,'11111222,11111222,11144222' 
ADCP,ioos:station:wmo:42364:1,2013-03-09T11:30:00Z,29.0600,-88.0900,122.0,5.6,106.0,99.0,'11111222,11111222,11144222' 
ADCP,ioos:station:wmo:42364:1,2013-03-09T12:30:00Z,29.0600,-88.0900,122.0,5.9,118.0,99.0,'11111222,11111222,11144222' 
ADCP,ioos:station:wmo:42364:1,2013-03-09T13:30:00Z,29.0600,-88.0900,122.0,5.7,119.0,99.0,'11111222,11111222,11144222' 
ADCP,ioos:station:wmo:42364:1,2013-03-09T14:30:00Z,29.0600,-88.0900,122.0,6.2,119.0,99.0,'11111222,11111222,11144222' 